Terug naar catalogus

COSMOS 1275 DEB

ActiefPO
NORAD 39962·DEBRIS·🇷🇺 Russia

Gelanceerd Jun 4, 1981 vanaf Plesetsk Cosmodrome

Loading…

Volgende Passages (komende 24 uur)

TLE

VerouderendSource: Space-Track

Epoch: Sep 6, 2026, 13:51 UTC

1 39962U 81053NY  26249.57720961  .00000374  00000-0  33611-3 0  9997
2 39962  82.8241 353.9801 0072373 186.3920 173.6324 13.80555988616445

Volg COSMOS 1275 DEB in realtime met AllMySat

Download on the App Store